Wetbulb
64.77 58.54 56.69 56.17 48.59 49.63 48.90 51.13 53.03 53.10 54.14 56.06 56.12 57.06 60.96 65.20 64.82 61.37 74.09 73.61 75.41 76.27 77.34 76.80 77.04 77.09 77.15 77.15 76.97 77.08 76.98 77.00 77.11 76.91 76.81 76.46 76.11 76.11 76.41 76.68 76.64 76.67 75.18 74.50 74.35 74.33 74.12 74.01 74.18
60.39 56.27 57.33 52.52 46.51 45.35 48.58 51.88 52.33 55.69 56.81 56.63 55.34 57.19 65.28 64.09 71.79 71.76 71.29 74.46 76.04 76.79 77.57 77.11 76.94 77.12 77.09 76.84 76.58 76.46 76.58 76.60 76.55 76.38 76.31 76.24 76.19 76.39 76.46 76.48 76.47 76.19 74.85 74.27 74.28 74.09 73.75 73.77 74.12
56.94 55.86 53.04 48.93 45.18 44.89 48.31 51.18 53.33 55.61 54.66 54.53 53.23 57.66 58.68 67.67 72.71 73.10 74.17 75.35 76.58 76.72 77.34 77.55 77.04 76.89 76.84 76.61 76.50 76.17 76.15 76.05 76.06 76.31 76.16 76.18 76.33 76.20 76.38 76.46 76.32 75.78 74.87 74.11 74.42 74.08 73.88 73.84 73.49
54.80 54.48 52.09 45.60 43.28 45.03 48.38 53.14 51.39 50.97 51.65 52.68 53.54 52.53 56.56 72.97 73.51 75.02 75.32 75.81 76.05 76.43 77.12 77.21 76.86 76.61 76.51 76.51 76.33 76.00 75.98 75.80 75.81 75.91 75.96 76.18 76.28 76.09 76.24 76.10 75.84 75.43 74.75 74.06 74.22 73.92 73.98 73.70 73.61
52.86 51.36 45.13 43.33 43.56 45.06 46.76 49.96 50.71 50.32 49.87 51.14 51.78 50.95 56.30 72.78 75.55 75.74 75.46 75.68 75.44 75.99 76.95 77.01 76.62 76.43 76.33 76.49 76.13 75.80 75.88 75.53 75.41 75.58 75.83 76.05 75.97 76.19 76.19 76.12 75.94 75.31 74.31 73.88 74.05 74.01 74.44 74.19 73.82
48.24 49.00 42.06 40.10 42.63 45.44 47.82 49.54 50.04 50.07 50.72 50.42 49.55 50.45 53.51 72.89 74.60 75.40 75.43 75.50 75.84 75.66 76.55 76.50 76.57 76.32 76.03 75.98 75.80 75.50 75.47 75.25 75.10 75.13 75.38 75.66 75.81 75.85 75.91 76.17 76.01 75.69 74.69 73.80 73.69 73.64 73.89 73.76 73.52
45.17 44.93 41.43 41.35 41.70 43.17 45.62 49.69 48.21 49.01 49.62 49.54 51.81 49.68 59.25 71.21 74.63 75.49 75.55 75.75 75.66 76.01 76.13 76.28 76.29 76.38 76.30 75.89 75.57 75.39 75.26 75.26 75.02 74.76 74.91 75.06 75.41 75.68 75.75 75.72 75.74 75.38 75.08 74.58 74.16 73.74 73.69 73.42 73.62
47.87 46.69 41.00 41.84 41.02 41.91 46.70 48.11 49.81 49.15 48.40 51.96 52.23 51.38 55.35 71.18 74.30 75.16 75.50 75.07 75.22 75.58 75.96 75.78 76.00 75.32 74.94 75.61 75.61 75.36 75.36 75.10 74.97 74.85 74.81 74.90 75.13 75.25 75.28 74.46 74.73 74.95 74.38 74.05 73.88 73.49 73.27 73.24 73.44
48.21 42.57 40.21 41.22 41.31 43.43 47.09 46.42 49.27 50.33 49.54 50.33 51.83 60.46 64.72 73.02 74.04 73.68 73.13 73.37 73.86 74.30 75.28 75.17 75.34 75.32 74.57 74.53 75.11 75.26 75.25 75.03 74.87 75.01 74.65 74.29 73.97 74.59 75.14 74.32 74.69 74.52 74.07 73.95 73.63 73.51 73.40 73.16 72.87
46.48 42.42 42.06 45.02 45.92 45.18 46.33 47.50 48.10 48.12 48.55 49.35 52.10 70.26 71.25 72.16 72.66 71.91 71.15 70.78 71.74 72.83 73.89 74.19 75.41 74.57 74.50 73.86 74.94 74.29 74.16 73.97 74.07 73.96 74.32 73.93 74.58 74.80 74.22 74.57 74.75 74.51 74.12 73.73 73.70 73.62 73.14 72.43 71.37
46.42 42.51 44.50 44.69 46.90 47.39 46.53 46.69 48.27 46.95 46.44 49.63 49.12 57.82 69.91 70.57 71.61 71.49 71.62 71.50 71.92 73.13 73.26 74.76 74.94 74.99 74.19 73.44 74.46 74.28 74.02 73.88 74.22 74.51 74.64 74.51 73.84 74.48 73.94 73.77 73.76 74.14 73.59 72.61 72.22 72.23 72.05 71.89 71.77
43.22 45.30 46.04 45.88 47.19 47.58 45.99 47.97 46.64 48.24 48.64 50.85 50.38 51.20 55.29 71.26 70.89 71.20 70.93 71.45 72.19 72.30 72.97 74.53 75.11 74.62 74.69 74.75 73.78 73.91 73.71 73.63 73.01 73.85 74.63 73.59 72.83 73.36 73.19 72.45 73.05 73.52 72.89 72.53 72.15 71.43 71.59 71.65 71.71
43.78 45.43 46.00 47.34 47.21 47.21 47.65 46.62 47.09 47.35 50.48 51.63 52.33 52.54 52.33 57.06 72.00 72.79 72.79 72.51 72.91 72.34 73.17 74.24 75.06 74.23 74.43 75.35 74.15 73.98 73.91 73.59 73.24 73.53 74.15 73.69 72.92 72.84 73.16 72.66 72.47 72.70 72.73 72.38 72.03 71.40 71.72 71.40 71.82
47.19 46.49 46.61 47.05 46.78 47.04 45.54 46.09 46.84 47.74 50.92 50.86 51.03 51.63 52.47 52.58 69.35 72.42 73.35 72.91 72.72 73.18 73.84 74.16 73.52 73.51 75.01 75.02 74.46 74.33 74.41 74.26 74.20 73.40 73.27 74.22 73.68 73.25 72.80 72.74 72.31 72.18 72.44 72.53 72.08 72.25 72.75 72.34 72.26
46.51 44.06 45.04 45.87 46.61 45.77 46.34 43.83 44.52 48.48 49.95 49.60 50.49 51.38 52.21 52.95 58.12 69.11 73.73 73.93 73.97 74.04 74.16 73.49 72.11 73.34 75.14 75.04 74.34 74.14 73.66 74.40 74.15 73.82 74.54 74.38 74.42 74.16 73.38 72.41 71.97 72.34 73.07 73.04 72.80 72.76 72.95 71.55 71.92
43.61 44.23 40.24 46.55 45.45 45.72 45.40 41.93 46.17 49.42 48.85 48.39 49.54 50.74 51.65 52.83 53.93 62.61 70.81 74.56 74.88 74.94 73.42 72.26 72.83 74.61 74.79 74.32 73.87 73.93 74.28 74.48 74.39 74.35 74.61 74.52 74.63 74.42 73.84 73.06 72.54 72.87 72.24 72.41 72.30 71.76 71.37 70.53 71.22
42.10 38.45 39.32 42.36 47.29 46.70 44.43 43.67 48.03 49.54 48.15 48.37 50.14 50.98 51.50 52.47 54.26 60.41 65.44 71.21 73.77 74.54 73.76 71.94 74.47 73.97 74.10 73.40 73.71 74.67 75.13 74.60 74.67 74.76 74.81 75.20 75.15 74.61 74.04 72.87 70.42 71.51 70.64 71.17 70.98 70.85 69.96 69.96 69.94
37.63 37.43 39.56 40.09 44.05 45.69 43.99 43.87 45.62 48.14 48.53 49.23 50.55 51.08 51.57 52.00 53.41 56.52 63.51 67.64 71.10 72.99 72.97 72.65 73.19 74.12 73.19 72.91 73.03 73.10 73.42 73.63 73.85 73.28 73.29 72.99 72.93 72.97 72.13 72.07 69.72 70.10 69.04 69.85 70.27 68.32 68.94 69.26 68.97
42.19 40.09 39.58 41.89 45.24 44.41 43.97 44.81 45.57 48.68 48.39 48.87 49.56 50.42 51.29 52.21 54.51 55.65 59.31 66.03 69.12 71.37 71.76 71.89 72.26 72.26 72.50 71.74 71.22 71.76 69.89 71.16 71.80 72.13 71.53 69.33 67.65 67.76 66.88 67.96 66.98 68.75 67.51 67.91 68.74 67.79 66.43 66.71 67.31
41.61 39.60 39.35 42.56 44.94 44.03 44.34 43.96 47.11 47.48 48.87 49.49 50.28 50.86 51.30 52.62 53.49 54.77 57.57 63.76 67.40 69.61 70.97 71.50 71.51 71.30 72.07 72.00 72.17 72.58 71.25 71.68 71.20 70.42 69.54 68.67 65.95 64.20 67.05 68.09 66.31 66.75 66.95 66.26 66.20 66.35 65.74 65.96 66.17
40.45 39.41 39.24 39.85 42.22 44.03 42.48 41.87 43.69 46.46 48.31 49.25 50.59 52.23 53.01 53.36 54.28 57.77 60.65 63.14 65.89 68.17 69.96 70.00 70.16 70.90 71.59 72.18 72.17 70.68 70.37 69.60 68.84 68.70 66.95 66.44 65.37 65.45 67.14 67.89 66.95 66.10 66.68 65.60 66.74 66.43 65.86 65.27 65.89
37.13 42.96 41.35 40.74 40.32 36.88 43.04 36.51 42.34 45.37 46.38 48.06 50.02 51.18 52.12 53.10 54.03 56.35 61.52 63.57 65.34 67.16 69.45 69.21 68.81 69.80 70.36 71.45 71.22 70.85 69.82 68.21 68.43 66.57 66.67 66.46 68.43 67.99 66.90 66.08 66.01 66.55 66.30 65.77 64.79 64.61 63.47 62.48 62.29
40.33 44.16 41.65 41.20 39.78 38.95 38.84 37.11 42.20 44.78 44.34 46.83 49.16 51.61 52.61 53.25 53.65 55.68 61.21 64.10 66.04 65.95 66.61 67.56 68.94 69.72 70.06 70.28 71.05 70.92 69.22 67.60 66.49 65.62 64.81 62.58 62.98 62.92 62.81 62.23 60.72 60.21 60.23 60.66 61.04 60.87 61.15 61.44 61.08
45.13 42.09 41.33 41.24 39.47 32.84 38.99 37.97 39.59 41.96 44.62 47.32 51.30 54.82 56.61 57.68 57.39 60.95 63.59 62.78 60.99 61.46 61.66 63.19 63.11 63.50 67.57 69.53 69.42 68.50 65.68 65.29 64.17 63.27 62.23 61.81 61.64 60.98 60.70 59.76 59.81 60.17 59.82 59.11 58.66 59.32 58.86 58.22 58.47
43.06 38.72 30.64 29.19 30.05 31.48 39.94 36.93 41.12 45.02 47.09 48.71 52.26 56.15 59.05 60.54 59.04 59.02 59.78 59.32 58.91 59.61 60.40 61.47 61.34 58.43 58.68 60.29 62.64 63.84 63.60 63.80 62.31 62.21 61.29 60.29 59.31 58.96 59.36 59.90 59.35 58.33 58.32 57.60 57.44 57.16 56.63 55.91 54.93
39.88 39.46 32.83 25.93 28.21 32.35 37.89 34.71 40.05 46.72 48.26 52.35 56.96 57.32 56.96 58.03 58.86 59.46 59.01 58.15 59.27 61.92 62.83 62.35 61.03 60.05 58.29 56.68 58.21 59.25 60.56 60.12 59.84 59.52 60.00 59.34 57.34 57.35 58.35 57.14 56.67 56.50 56.54 56.56 56.68 55.80 55.46 55.86 54.95
40.29 35.82 42.19 36.17 37.62 33.41 35.80 39.33 43.62 48.32 51.05 54.69 54.70 54.64 54.84 55.66 57.16 57.50 57.11 58.75 60.66 60.63 60.57 60.74 60.22 59.38 58.64 56.80 57.10 58.13 58.37 58.51 58.13 57.89 58.87 57.06 57.08 55.91 55.71 56.11 56.05 55.97 55.94 56.15 56.33 55.21 55.40 55.39 54.99
42.86 44.64 35.59 38.16 28.99 28.29 34.40 37.06 39.56 45.78 48.91 52.59 52.74 53.34 53.67 54.39 54.88 55.28 55.97 58.79 59.71 59.93 59.93 60.38 59.81 57.31 56.27 56.34 57.23 58.61 57.48 57.20 57.66 57.35 56.73 56.74 56.92 56.38 55.73 55.54 55.77 55.69 55.80 55.90 55.90 55.09 55.19 54.61 54.23
39.22 38.35 39.68 40.48 38.38 32.58 31.21 35.87 46.72 47.69 50.75 52.09 53.05 53.20 53.40 53.73 53.44 53.86 56.21 57.49 57.58 58.45 58.68 58.07 57.25 55.27 55.43 56.18 56.93 58.15 57.59 57.11 57.35 56.52 56.56 56.42 56.50 55.77 54.87 54.96 54.99 55.08 54.93 54.91 54.59 54.44 53.96 53.70 54.19
43.41 41.19 40.83 36.40 34.49 38.50 39.10 37.89 49.31 49.70 53.08 53.80 52.19 52.27 52.96 53.40 54.34 55.19 55.29 55.27 55.29 55.75 56.14 56.22 56.55 55.91 55.72 55.33 55.54 55.62 56.47 56.97 56.35 55.92 56.46 56.35 55.48 55.31 54.60 54.72 54.50 54.06 53.80 54.13 53.55 53.24 53.76 53.71 53.44
MSLP
1011.19 1010.86 1010.74 1009.96 1009.74 1008.83 1007.10 1006.38 1006.26 1005.82 1005.34 1005.15 1004.99 1004.71 1004.18 1004.02 1003.62 1004.39 1005.14 1005.70 1006.40 1007.08 1007.80 1008.60 1009.20 1009.72 1010.34 1010.66 1010.67 1010.85 1011.20 1011.55 1011.87 1012.23 1012.67 1013.07 1013.30 1013.50 1013.86 1014.15 1014.35 1014.49 1014.67 1014.89 1015.14 1015.22 1015.25 1015.30 1015.43
1011.05 1010.74 1010.37 1009.86 1008.75 1007.55 1006.07 1005.89 1005.50 1005.08 1004.82 1004.90 1004.48 1004.32 1004.22 1003.42 1003.87 1004.59 1005.10 1006.03 1006.43 1006.99 1007.86 1008.49 1009.17 1009.52 1010.19 1010.59 1010.79 1011.12 1011.41 1011.74 1012.13 1012.43 1012.77 1013.22 1013.56 1013.80 1014.04 1014.24 1014.46 1014.56 1014.73 1014.92 1015.06 1015.20 1015.32 1015.43 1015.59
1011.07 1010.82 1010.05 1009.40 1008.34 1006.55 1005.64 1005.69 1005.48 1005.21 1005.23 1004.89 1004.37 1004.09 1003.80 1003.59 1003.83 1004.17 1004.64 1005.81 1006.60 1007.30 1007.84 1008.56 1009.34 1009.54 1010.09 1010.37 1010.71 1011.06 1011.61 1011.88 1012.21 1012.52 1012.94 1013.31 1013.65 1014.01 1014.24 1014.48 1014.69 1014.82 1014.94 1015.12 1015.24 1015.35 1015.43 1015.56 1015.73
1010.88 1010.55 1010.73 1009.49 1007.69 1007.21 1006.27 1005.46 1005.82 1005.48 1005.39 1005.15 1004.63 1003.88 1003.71 1003.58 1003.71 1004.26 1005.20 1005.96 1006.68 1007.36 1007.75 1008.66 1009.26 1009.77 1010.12 1010.42 1010.79 1011.01 1011.46 1012.03 1012.38 1012.69 1013.11 1013.45 1013.81 1014.13 1014.36 1014.57 1014.74 1014.90 1015.04 1015.18 1015.34 1015.45 1015.55 1015.69 1015.85
1011.19 1010.77 1009.74 1008.95 1007.90 1007.40 1006.88 1006.17 1005.91 1005.45 1005.45 1005.19 1004.91 1004.00 1003.58 1003.66 1004.27 1004.81 1005.41 1005.85 1006.40 1007.22 1007.76 1008.66 1009.39 1009.64 1009.91 1010.16 1010.46 1010.69 1011.17 1011.73 1012.40 1012.86 1013.29 1013.64 1013.92 1014.14 1014.31 1014.56 1014.75 1014.86 1015.04 1015.13 1015.41 1015.63 1015.75 1015.79 1015.92
1010.80 1010.79 1009.61 1008.13 1007.21 1006.86 1006.66 1006.26 1006.02 1005.61 1005.19 1005.17 1005.08 1004.60 1003.72 1004.16 1004.50 1004.95 1005.46 1006.08 1006.71 1007.27 1008.03 1008.87 1009.67 1009.96 1010.28 1010.65 1010.83 1011.17 1011.46 1011.76 1012.16 1012.61 1013.12 1013.59 1013.93 1014.24 1014.42 1014.52 1014.64 1014.80 1015.03 1015.22 1015.32 1015.50 1015.66 1015.81 1015.91
1010.23 1009.95 1008.71 1008.23 1007.38 1006.61 1005.86 1006.10 1005.83 1005.32 1004.88 1004.67 1004.78 1004.38 1003.65 1004.18 1004.71 1005.11 1005.49 1006.31 1006.89 1007.61 1008.26 1008.94 1009.64 1010.26 1010.59 1010.81 1011.24 1011.54 1011.76 1012.09 1012.40 1012.79 1013.08 1013.39 1013.73 1014.10 1014.33 1014.50 1014.65 1014.77 1014.88 1015.10 1015.32 1015.49 1015.60 1015.72 1015.80
1010.44 1010.01 1008.76 1008.00 1007.23 1005.89 1005.70 1005.68 1005.37 1005.15 1004.77 1004.84 1004.71 1004.13 1003.63 1004.55 1005.39 1005.76 1005.85 1006.41 1007.00 1007.72 1008.43 1008.87 1009.35 1009.80 1010.38 1010.96 1011.39 1011.65 1012.00 1012.19 1012.36 1012.60 1012.98 1013.26 1013.50 1013.84 1014.19 1014.51 1014.67 1014.73 1014.88 1015.03 1015.27 1015.51 1015.70 1015.83 1015.89
1010.76 1009.60 1007.77 1007.38 1007.14 1005.59 1005.72 1005.49 1005.59 1005.47 1005.11 1004.75 1004.57 1004.59 1004.38 1004.83 1005.50 1006.11 1006.26 1006.59 1007.19 1007.79 1008.43 1008.97 1009.17 1009.61 1009.99 1010.52 1011.37 1011.84 1011.95 1012.22 1012.44 1012.59 1012.91 1013.34 1013.28 1013.53 1013.78 1013.94 1014.39 1014.55 1014.71 1014.99 1015.17 1015.34 1015.47 1015.61 1015.75
1009.68 1008.48 1007.26 1007.21 1006.58 1005.64 1005.74 1005.76 1005.64 1005.49 1005.06 1004.66 1004.55 1004.88 1004.86 1005.24 1005.36 1005.67 1005.96 1006.49 1007.08 1007.53 1008.11 1008.81 1009.02 1009.36 1009.80 1010.21 1010.84 1011.27 1011.74 1011.97 1012.13 1012.31 1012.62 1012.74 1013.07 1013.29 1013.37 1013.72 1014.21 1014.45 1014.56 1014.71 1014.86 1015.10 1015.29 1015.44 1014.97
1008.67 1006.53 1007.14 1006.84 1006.62 1006.44 1006.09 1005.96 1005.94 1005.38 1004.65 1004.52 1004.71 1004.82 1005.25 1005.49 1005.63 1005.59 1005.59 1005.84 1006.37 1007.47 1008.36 1008.87 1009.09 1009.32 1009.64 1009.83 1010.28 1010.62 1011.00 1011.53 1011.91 1012.17 1012.42 1012.63 1012.94 1013.27 1013.50 1013.57 1013.77 1014.01 1014.43 1014.36 1014.59 1014.67 1014.62 1014.65 1014.71
1008.00 1007.20 1006.94 1006.54 1006.46 1006.42 1006.01 1005.85 1005.57 1005.24 1004.51 1004.48 1004.82 1004.98 1005.09 1005.18 1005.19 1005.13 1005.39 1005.97 1006.70 1007.51 1008.08 1008.59 1008.89 1009.28 1009.65 1009.63 1010.12 1010.63 1010.69 1010.94 1011.31 1011.85 1012.24 1012.50 1012.73 1013.02 1013.13 1013.14 1013.21 1013.64 1013.64 1013.87 1014.15 1014.05 1014.33 1014.62 1014.70
1007.27 1006.94 1006.80 1006.55 1006.28 1006.16 1006.11 1005.63 1005.50 1005.07 1004.52 1004.61 1004.52 1004.48 1004.59 1004.69 1004.83 1005.08 1005.10 1005.62 1006.45 1007.07 1007.54 1008.12 1008.66 1009.11 1009.59 1009.80 1010.08 1010.18 1010.47 1010.85 1011.36 1011.86 1012.18 1012.27 1012.49 1012.84 1012.94 1013.10 1013.20 1013.04 1013.29 1013.68 1014.14 1013.84 1014.10 1014.23 1014.46
1006.35 1006.57 1006.48 1006.24 1005.94 1005.82 1005.63 1005.18 1005.45 1004.79 1004.52 1004.37 1004.51 1004.02 1003.90 1004.07 1004.28 1004.81 1005.13 1005.48 1006.03 1006.68 1007.09 1007.83 1008.45 1009.07 1009.45 1009.65 1009.95 1010.32 1010.58 1010.98 1011.15 1011.47 1011.83 1012.27 1012.46 1012.70 1012.90 1012.98 1013.19 1013.00 1013.02 1013.41 1013.56 1013.80 1013.54 1014.07 1014.08
1006.50 1006.51 1006.29 1005.76 1005.71 1005.56 1005.94 1004.42 1003.52 1004.57 1004.04 1003.79 1003.88 1003.69 1003.65 1003.56 1004.08 1004.21 1004.18 1004.77 1005.38 1005.91 1006.67 1007.34 1008.17 1008.85 1009.23 1009.49 1009.79 1010.11 1010.61 1010.90 1011.18 1011.37 1011.69 1012.03 1012.45 1012.60 1012.69 1013.08 1013.18 1012.96 1013.20 1013.68 1013.75 1013.69 1013.62 1014.13 1013.94
1006.15 1006.45 1005.20 1004.51 1005.24 1005.27 1005.46 1001.74 1002.47 1002.61 1003.04 1003.03 1003.13 1003.17 1003.29 1003.18 1003.33 1003.68 1004.17 1004.48 1005.31 1005.89 1006.19 1007.12 1007.68 1008.24 1008.78 1009.17 1009.60 1010.04 1010.20 1010.56 1011.01 1011.51 1011.71 1011.97 1012.18 1012.41 1012.59 1012.95 1012.95 1012.96 1013.37 1013.68 1013.60 1013.87 1013.78 1014.11 1014.19
1004.97 1003.23 1003.92 1004.15 1003.91 1004.17 1004.04 1002.14 1001.88 1002.24 1002.40 1002.29 1002.19 1002.44 1002.54 1002.86 1003.26 1003.73 1004.20 1004.51 1005.01 1005.37 1005.96 1006.66 1007.36 1007.73 1008.51 1009.14 1009.42 1009.85 1010.20 1010.51 1010.92 1011.33 1011.59 1011.96 1012.18 1012.45 1012.39 1012.49 1012.89 1012.99 1012.99 1013.82 1014.12 1014.01 1014.20 1014.32 1014.10
1001.84 1002.88 1003.00 1002.73 1002.79 1003.04 1002.81 1002.38 1002.04 1001.58 1001.81 1001.70 1001.44 1001.69 1002.06 1002.39 1002.78 1003.12 1003.79 1004.23 1004.90 1005.53 1006.02 1006.53 1007.01 1007.48 1008.27 1008.89 1009.38 1009.82 1010.28 1010.59 1010.92 1011.51 1011.87 1012.30 1012.44 1012.68 1012.95 1013.09 1013.08 1012.58 1013.28 1014.42 1014.70 1014.58 1014.40 1014.40 1014.17
1002.18 1002.22 1001.96 1002.35 1002.13 1001.98 1001.31 1001.46 1001.78 1001.26 1001.54 1001.36 1001.11 1001.05 1001.43 1001.96 1002.26 1003.08 1003.51 1004.08 1004.70 1005.38 1005.84 1006.26 1006.66 1007.37 1007.93 1008.45 1009.07 1009.48 1010.28 1010.77 1011.15 1011.58 1011.74 1012.38 1012.77 1013.47 1013.54 1012.84 1013.29 1013.35 1013.48 1014.45 1015.00 1014.47 1014.23 1014.34 1014.35
1002.79 1002.28 1001.86 1001.94 1001.62 1001.85 1001.20 1000.81 1001.07 1001.01 1000.53 1000.71 1000.58 1000.47 1000.68 1001.23 1002.01 1002.83 1003.27 1003.82 1004.24 1004.69 1005.41 1006.12 1006.65 1007.25 1007.64 1008.29 1008.84 1009.24 1009.98 1010.49 1010.84 1011.32 1011.54 1011.60 1012.09 1013.14 1013.92 1013.85 1014.14 1014.36 1014.72 1014.88 1014.76 1014.47 1014.49 1014.33 1014.17
1002.58 1002.18 1002.13 1001.29 1001.33 1001.54 1001.12 1000.26 1000.25 1000.04 999.94 1000.07 999.98 1000.03 1000.10 1000.44 1000.95 1002.13 1002.95 1003.27 1003.85 1004.40 1005.19 1005.96 1006.55 1007.09 1008.01 1008.49 1008.99 1009.81 1010.28 1010.82 1011.31 1011.46 1011.93 1012.08 1012.24 1012.58 1013.18 1013.75 1013.71 1014.29 1014.93 1014.64 1014.84 1014.90 1014.45 1014.09 1014.32
1001.69 1002.37 1002.54 1001.96 1001.20 1000.52 1000.78 999.05 998.85 998.63 998.56 998.97 999.14 999.60 999.83 1000.15 1000.81 1001.49 1002.41 1003.18 1003.70 1004.39 1005.55 1006.55 1006.99 1007.64 1008.13 1008.37 1008.65 1009.24 1009.49 1010.13 1011.22 1011.56 1012.06 1012.37 1012.32 1012.72 1013.52 1013.76 1014.24 1014.90 1014.98 1014.66 1015.00 1015.27 1015.01 1014.96 1014.45
1000.37 1001.77 1002.44 1002.19 1001.60 1001.00 1000.37 999.76 997.44 998.08 997.62 997.86 998.39 998.88 999.48 999.99 1000.59 1001.37 1002.19 1003.14 1004.23 1005.29 1006.07 1006.78 1007.40 1007.83 1008.25 1008.52 1008.55 1009.18 1010.06 1010.72 1010.95 1011.69 1012.18 1012.80 1013.45 1013.76 1014.04 1014.49 1014.46 1014.88 1015.23 1015.44 1015.28 1015.59 1015.16 1014.97 1015.10
1001.31 1001.47 1002.26 1002.53 1002.00 1001.10 999.22 999.04 996.97 997.06 996.95 997.12 997.73 998.66 999.53 1000.18 1000.80 1001.88 1003.01 1004.18 1005.22 1006.11 1006.49 1007.05 1007.90 1008.63 1008.82 1008.93 1009.23 1009.71 1010.44 1011.14 1011.50 1012.04 1012.82 1013.74 1014.35 1014.34 1014.30 1014.64 1015.00 1015.37 1015.38 1015.34 1015.34 1015.64 1015.50 1015.46 1015.55
1000.35 1000.37 1001.16 1001.92 1001.30 999.01 998.65 998.95 995.81 997.17 997.20 996.93 997.35 998.82 1000.06 1001.42 1002.12 1003.04 1004.04 1005.01 1005.72 1006.13 1006.62 1007.37 1008.34 1008.97 1009.69 1010.60 1010.97 1010.50 1010.93 1011.41 1012.47 1013.17 1013.64 1013.86 1013.97 1014.07 1014.59 1014.67 1014.93 1015.11 1015.39 1015.60 1015.73 1015.62 1015.66 1015.69 1015.52
998.50 998.18 997.30 997.74 998.10 997.37 998.64 997.13 996.22 996.53 997.50 998.07 998.53 999.70 1000.89 1002.04 1002.89 1003.58 1004.70 1005.62 1006.13 1006.24 1006.49 1007.49 1007.99 1008.47 1009.69 1010.59 1013.07 1012.37 1012.10 1012.23 1012.98 1013.35 1013.97 1014.18 1014.37 1014.74 1015.16 1015.35 1015.55 1015.71 1015.84 1015.70 1015.44 1015.21 1015.38 1015.65 1015.51
997.62 997.36 996.87 997.25 997.60 997.72 997.56 997.19 996.88 997.22 998.33 999.09 999.90 1000.70 1001.86 1002.91 1003.68 1004.62 1005.37 1005.89 1006.16 1006.69 1006.91 1007.78 1007.58 1008.10 1009.05 1009.69 1012.35 1012.70 1013.10 1012.13 1013.79 1013.99 1014.12 1014.33 1014.68 1014.94 1015.15 1015.25 1015.34 1015.45 1015.48 1015.42 1015.51 1015.36 1015.43 1015.46 1015.48
996.05 996.48 996.90 996.34 996.34 996.25 996.45 996.59 996.27 997.57 998.68 999.79 1000.64 1001.57 1002.83 1003.86 1004.58 1005.37 1005.88 1006.27 1006.72 1007.04 1007.56 1008.40 1007.95 1008.51 1008.96 1009.78 1013.48 1013.52 1013.09 1013.81 1014.25 1013.99 1014.05 1014.34 1014.71 1014.91 1015.01 1015.17 1015.37 1015.44 1015.52 1015.58 1015.60 1015.49 1015.56 1015.59 1015.40
996.64 995.98 996.00 995.66 995.84 995.19 996.10 996.69 997.52 997.58 998.75 999.86 1001.14 1002.30 1003.35 1004.28 1004.99 1005.71 1006.28 1006.88 1007.33 1007.51 1008.02 1008.39 1009.21 1009.46 1010.80 1011.97 1013.36 1013.63 1014.21 1014.17 1013.83 1013.45 1013.98 1014.42 1014.65 1014.96 1015.18 1015.38 1015.53 1015.60 1015.61 1015.80 1015.85 1015.78 1015.55 1015.44 1015.27
996.96 995.51 995.11 995.10 995.62 995.51 995.60 997.44 998.47 998.84 999.52 1000.64 1001.95 1002.96 1003.98 1004.85 1005.59 1006.30 1006.71 1007.39 1007.97 1008.32 1008.66 1009.45 1010.22 1011.17 1012.24 1013.38 1013.90 1014.21 1014.21 1013.95 1013.61 1013.82 1014.48 1014.97 1014.98 1015.10 1015.19 1015.36 1015.46 1015.52 1015.64 1015.77 1015.73 1015.56 1015.44 1015.20 1014.84
Wind_Speed
7 6 2 1 4 3 7 8 1 4 4 1 4 4 7 7 4 1 2 10 16 19 19 20 19 17 14 14 18 19 18 18 18 18 17 16 16 16 15 13 11 12 12 11 10 10 11 13 13
3 1 1 2 6 10 11 7 10 11 4 6 6 1 5 4 2 5 11 10 18 19 17 18 19 20 18 16 16 18 19 19 18 18 18 17 15 15 14 13 12 12 12 12 12 11 12 13 13
0 2 3 4 5 16 12 7 9 8 4 4 4 2 4 1 2 4 6 16 18 17 17 17 17 20 19 19 18 18 16 17 17 18 17 17 16 14 13 11 10 11 11 11 11 11 11 12 12
1 3 3 6 13 7 13 9 2 1 1 1 3 9 4 2 2 5 17 18 18 18 18 20 19 18 19 19 19 19 19 17 17 17 17 16 15 13 12 11 11 11 11 11 10 10 10 11 11
3 0 4 5 13 5 7 7 5 4 2 2 7 5 6 5 10 15 17 17 19 18 17 18 17 18 19 20 20 20 20 19 18 17 16 16 15 13 12 11 11 11 11 11 10 10 8 9 9
4 1 5 14 16 8 8 10 10 12 8 5 4 5 6 5 9 12 16 14 16 18 17 16 15 16 16 16 17 17 18 18 19 19 18 16 14 13 12 11 11 10 10 10 11 10 9 8 8
5 5 9 7 7 10 13 8 9 10 10 6 3 6 3 4 8 13 16 15 16 17 15 14 14 13 14 14 14 15 16 17 17 17 17 16 15 13 12 10 10 9 9 9 9 9 9 8 8
4 4 6 10 11 15 5 4 7 12 13 2 4 7 4 4 10 12 15 15 16 15 15 15 14 14 13 13 13 15 15 16 16 17 16 16 16 14 12 10 9 9 8 8 8 7 6 6 5
4 8 12 14 13 12 3 6 4 1 5 3 2 5 6 15 15 12 14 15 15 13 14 13 15 14 13 13 13 13 16 16 15 15 15 13 10 13 14 11 11 10 9 8 8 8 8 7 7
10 10 15 6 13 8 3 7 4 3 4 3 2 5 7 13 16 17 17 16 15 16 16 14 15 15 14 11 14 13 12 11 12 12 14 11 10 10 10 10 10 9 9 9 9 8 7 7 5
10 17 10 9 14 13 12 10 5 5 11 8 0 5 6 9 12 14 17 19 19 16 12 14 13 13 14 12 10 8 8 8 9 13 12 10 8 8 7 6 7 6 8 5 7 6 6 6 5
11 11 13 9 12 8 11 8 6 13 15 4 3 4 2 11 14 16 16 16 16 16 15 15 15 13 13 10 9 9 9 9 9 10 12 8 7 8 7 6 8 7 6 7 6 5 5 6 7
17 12 13 19 14 13 8 11 9 9 13 9 13 13 9 11 14 13 13 15 16 17 16 17 15 12 11 12 9 10 10 9 9 9 11 8 8 7 7 6 6 6 5 6 5 5 4 6 8
4 19 19 14 17 15 17 20 14 8 18 16 11 12 10 8 15 12 13 15 16 15 16 16 15 12 14 12 11 8 7 8 9 9 9 11 8 7 7 6 7 6 5 6 6 7 4 6 6
8 11 12 18 19 15 6 22 21 15 20 19 15 15 12 11 9 17 18 17 17 16 15 17 15 13 15 14 10 8 8 8 8 8 10 11 9 8 7 6 6 4 4 5 4 4 3 5 6
12 18 21 13 12 10 18 21 3 22 23 22 18 16 13 13 15 14 12 15 15 14 17 15 14 16 15 11 9 8 7 7 7 7 7 10 9 9 8 6 4 3 3 3 2 3 3 5 6
14 15 19 15 20 13 21 10 14 15 14 19 16 16 14 12 12 11 13 14 15 16 15 16 16 15 14 11 8 8 9 7 6 5 5 7 8 8 7 5 3 3 3 1 2 2 2 4 5
18 23 14 17 13 23 22 17 3 8 14 13 14 13 12 11 14 14 15 13 12 12 11 13 13 13 13 9 8 6 6 5 5 5 3 4 5 5 5 4 1 4 5 2 3 4 3 5 6
9 16 21 15 10 17 26 21 17 13 10 12 13 12 13 11 11 10 11 12 12 12 13 14 15 14 11 9 9 8 5 5 6 7 11 10 10 12 8 7 5 3 4 3 5 2 3 4 4
16 17 17 11 18 14 13 22 21 21 19 16 16 14 13 11 10 9 12 14 15 15 14 13 14 13 11 9 7 5 6 6 8 8 9 11 12 11 3 4 1 1 2 3 5 3 3 3 2
26 20 13 6 11 18 5 16 15 16 16 15 17 15 14 14 14 11 13 16 15 16 15 13 13 13 10 10 7 5 6 5 4 5 4 7 11 12 10 9 1 2 5 3 1 2 2 3 2
27 25 15 13 13 11 12 6 13 20 18 17 17 15 15 14 12 11 13 13 15 13 9 9 11 11 10 11 10 11 9 10 4 6 6 6 7 7 6 6 6 5 2 4 3 2 2 1 4
22 17 22 16 8 5 9 6 8 9 17 17 18 15 14 14 13 12 13 10 7 8 10 10 10 9 8 8 9 9 7 5 8 8 11 11 9 8 8 7 7 6 4 5 5 4 5 3 2
13 17 20 17 10 11 18 12 7 10 16 14 10 9 9 10 11 10 11 13 12 12 14 13 13 10 5 6 6 8 8 8 8 9 9 7 7 7 9 9 8 6 6 6 5 4 5 5 4
22 22 11 12 12 13 19 13 11 8 9 12 13 12 10 11 11 13 14 12 13 16 17 16 17 16 16 14 8 11 12 12 11 9 7 8 6 6 8 8 7 7 7 5 4 4 4 5 5
29 26 11 15 18 18 6 15 8 23 7 1 12 13 12 11 12 13 14 13 14 16 18 18 19 21 17 18 13 8 11 7 7 8 7 5 6 7 7 7 7 6 5 5 5 4 5 5 5
31 24 14 7 10 10 9 4 3 10 8 11 14 14 13 12 13 14 14 12 15 15 16 16 19 17 13 19 4 6 4 12 7 8 8 7 8 7 7 7 7 7 6 7 6 5 6 6 6
27 28 16 6 12 11 12 16 5 13 13 13 15 14 14 14 14 14 12 13 11 12 13 12 16 15 17 19 6 5 8 8 8 8 9 9 8 7 7 7 6 6 6 7 7 6 6 8 7
9 19 16 9 3 6 8 9 3 7 16 18 16 15 15 16 15 13 14 14 13 14 15 17 17 18 13 13 10 10 8 7 6 8 7 6 6 6 6 5 5 5 6 6 6 7 7 8 8
22 27 26 14 10 1 2 5 3 6 13 16 16 16 15 17 17 18 18 16 15 15 16 15 15 15 14 12 11 9 8 7 7 7 6 4 5 5 5 5 5 6 7 7 7 8 8 8 10
Wind_Direction
308 323 284 233 216 252 222 215 207 186 215 125 283 249 259 301 235 28 86 157 142 145 147 151 145 141 142 140 129 125 124 124 125 126 128 132 133 132 133 132 134 130 130 129 131 127 124 122 120
346 304 101 123 228 221 228 204 193 220 214 314 291 224 244 277 215 115 130 152 150 143 148 152 147 142 146 140 130 128 128 128 129 129 132 133 133 134 135 137 141 140 139 140 141 138 132 127 127
193 5 206 212 223 230 248 219 233 251 285 264 288 253 290 249 273 165 123 148 146 146 148 147 147 143 144 139 135 129 128 130 131 133 135 136 137 139 138 135 136 140 142 143 142 139 135 134 136
357 150 119 234 226 232 240 246 170 262 71 192 334 291 276 233 208 143 141 139 147 149 153 145 146 143 142 141 140 136 137 136 136 135 136 137 139 140 136 137 139 142 144 145 144 143 142 141 144
47 198 204 232 245 237 247 252 243 256 297 217 326 290 272 133 120 130 145 147 153 154 154 151 147 147 148 148 146 144 143 143 140 138 139 141 142 142 142 142 142 145 148 148 149 151 148 149 154
148 194 217 231 231 238 247 242 262 263 262 264 231 274 268 100 133 138 144 149 154 151 151 149 148 147 146 146 146 145 144 143 142 142 143 145 146 148 148 150 152 150 151 155 158 161 158 159 163
224 194 226 231 254 265 244 188 216 262 248 234 290 246 252 174 140 143 140 144 149 148 148 152 156 148 142 145 146 144 142 143 143 144 147 150 152 154 155 153 152 156 157 161 167 170 170 171 175
188 223 206 221 221 257 223 186 213 233 259 277 215 226 229 127 141 141 135 139 145 149 151 153 157 159 161 156 149 146 148 149 149 152 157 158 158 158 159 161 165 164 168 172 175 176 176 183 193
159 228 231 222 202 230 122 209 188 229 256 296 227 284 325 142 142 142 134 144 149 156 161 160 160 164 166 161 158 155 157 157 159 160 162 160 173 173 168 176 164 175 178 181 182 182 187 192 207
201 227 224 224 225 248 205 200 154 254 270 238 83 48 106 155 160 157 152 153 163 166 171 171 170 167 167 166 164 170 169 174 175 176 173 179 179 183 186 175 183 188 189 190 192 196 198 207 216
206 233 217 213 228 244 248 244 237 235 269 233 97 44 136 176 178 169 164 169 171 168 173 181 174 173 176 172 171 176 175 179 185 183 180 182 180 183 193 187 190 197 198 214 200 197 214 210 222
236 230 225 227 226 220 235 253 231 224 238 166 301 319 261 196 191 181 170 165 166 174 181 185 184 179 188 175 180 185 186 184 183 188 185 183 187 187 191 194 189 198 197 204 212 206 218 234 243
232 229 217 233 238 228 229 235 238 223 250 256 289 291 271 224 208 195 180 171 173 181 187 190 185 180 187 184 185 193 196 188 189 187 191 191 194 194 191 199 207 192 199 204 228 210 227 229 238
230 223 233 234 237 241 246 253 238 222 251 260 257 266 276 238 205 192 187 182 185 189 193 189 194 188 191 194 190 199 194 187 190 187 193 200 203 200 200 200 211 200 195 213 197 223 220 257 268
208 227 231 237 235 240 203 254 238 229 239 249 251 261 260 254 203 209 195 193 191 196 190 194 194 194 196 198 193 191 187 193 197 196 196 201 203 206 211 219 207 197 204 235 228 233 225 260 260
217 239 242 203 195 216 199 244 194 218 216 238 241 246 241 244 226 219 221 205 196 196 197 195 195 194 194 184 185 183 185 191 192 195 199 206 207 212 209 215 221 178 193 225 209 235 260 251 246
204 225 225 230 213 204 200 258 239 226 199 224 229 233 237 229 228 222 215 208 202 203 196 200 200 197 192 185 175 175 179 181 183 190 202 212 211 219 222 202 192 146 68 354 256 217 234 251 261
208 215 207 206 186 213 211 230 233 175 201 218 234 225 234 228 221 219 215 209 208 207 204 204 195 187 178 171 165 170 170 159 152 144 139 80 40 5 344 305 212 96 98 263 234 243 210 263 281
225 204 215 204 192 195 218 221 223 228 227 237 237 241 233 224 239 223 215 211 205 205 201 198 184 177 167 159 161 170 148 153 146 123 109 91 70 31 51 311 26 10 124 219 241 253 249 250 262
230 214 212 201 218 208 222 233 222 233 240 233 226 229 235 224 196 202 205 206 208 205 202 194 186 170 172 165 158 159 149 156 148 150 146 126 114 112 318 310 261 264 302 230 219 208 225 236 2
220 219 197 165 178 210 240 240 217 218 218 216 226 231 230 229 231 199 195 202 204 204 197 191 173 166 157 162 145 108 114 118 135 147 120 136 145 146 188 226 262 165 233 192 226 236 297 303 17
215 216 218 199 194 188 199 252 214 207 209 206 205 214 224 221 228 214 198 198 202 199 182 173 158 152 162 168 171 172 184 171 164 147 135 107 110 133 163 148 155 178 138 98 77 42 48 12 302
222 185 205 213 206 197 182 236 222 200 214 208 206 211 222 223 214 202 197 185 148 142 139 136 140 155 170 181 192 181 161 148 143 132 112 95 89 100 110 107 94 89 91 79 79 57 47 49 313
199 178 192 209 229 238 210 209 205 203 218 202 175 180 189 188 177 160 141 124 107 108 101 99 92 68 74 178 164 126 138 137 128 116 114 116 119 106 89 93 95 93 86 64 57 48 42 24 356
200 166 154 184 196 217 206 201 223 233 229 213 181 150 146 130 130 133 137 117 121 119 114 108 102 80 63 37 23 118 128 122 121 122 125 129 111 93 81 82 75 71 63 58 35 38 23 10 351
191 183 174 173 187 201 155 212 220 221 206 115 127 131 128 137 133 128 121 122 127 127 115 115 112 104 94 74 0 22 101 108 101 119 119 107 111 106 106 98 92 87 75 57 36 31 4 353 341
191 196 194 132 184 161 176 194 224 184 143 133 126 129 132 131 125 121 121 134 132 127 117 121 117 112 115 116 91 57 137 85 112 122 126 122 117 118 101 87 76 64 49 35 10 2 339 335 327
185 195 201 218 169 179 190 207 150 172 165 150 144 133 119 113 110 109 114 125 119 121 119 126 104 100 95 101 170 145 109 127 144 129 115 115 114 102 87 78 64 51 33 15 357 342 333 322 316
207 190 203 210 241 182 152 197 105 171 165 158 148 134 129 121 117 111 115 104 102 102 104 97 102 96 108 115 138 131 132 130 109 92 91 92 100 95 83 77 54 34 15 1 340 329 323 320 310
202 192 196 189 192 189 195 121 25 132 150 149 134 123 120 114 119 119 116 110 104 101 99 98 106 113 120 135 131 127 121 103 85 88 95 112 105 83 70 52 27 9 359 351 337 326 320 311 315